• In Hungary
  • List of Countries
  • For 7 days
  • Water Temperature
  • Satellite Maps
  • Weather Map
  • News
  • Weather Widgets
  • user-avatar
    Login

    Hourly Weather Strizkov

    Today, 15 December, Friday

    Time Temperature Precipitation Wind Pressure Humidity
    00:00 +1°C° 0 mm 3 mps 721 mmHg 82%
    01:00 +1°C° 0 mm 2 mps 720 mmHg 87%
    02:00 +2°C° 0.1 mm 2 mps 720 mmHg 87%
    03:00 +2°C° 0.1 mm 2 mps 720 mmHg 86%
    04:00 +2°C° 0.1 mm 2 mps 720 mmHg 86%
    05:00 +1°C° 0.2 mm 3 mps 720 mmHg 86%
    06:00 +1°C° 0.2 mm 3 mps 719 mmHg 86%
    07:00 +2°C° 0 mm 2 mps 719 mmHg 88%
    08:00 0°C° 0.3 mm 4 mps 720 mmHg 83%
    09:00 +1°C° 0.3 mm 5 mps 720 mmHg 79%
    10:00 +2°C° 0.3 mm 7 mps 721 mmHg 74%
    11:00 +2°C° 0 mm 7 mps 721 mmHg 71%
    12:00 +2°C° 0 mm 6 mps 722 mmHg 68%
    13:00 +3°C° 0 mm 6 mps 722 mmHg 64%
    14:00 +3°C° 0 mm 4 mps 722 mmHg 68%
    15:00 +2°C° 0 mm 3 mps 723 mmHg 72%
    16:00 +2°C° 0 mm 2 mps 723 mmHg 76%
    17:00 +2°C° 0 mm 2 mps 723 mmHg 78%
    18:00 +2°C° 0 mm 2 mps 723 mmHg 79%
    19:00 +2°C° 0 mm 2 mps 723 mmHg 81%
    20:00 +2°C° 0.1 mm 2 mps 724 mmHg 82%
    21:00 +2°C° 0.1 mm 2 mps 724 mmHg 84%
    22:00 +1°C° 0.1 mm 2 mps 724 mmHg 86%
    23:00 +1°C° 0 mm 2 mps 724 mmHg 87%

    Tomorrow, 16 December, Saturday

    Time Temperature Precipitation Wind Pressure Humidity
    00:00 +1°C° 0 mm 2 mps 724 mmHg 89%
    01:00 +1°C° 0 mm 2 mps 724 mmHg 90%
    02:00 -1°C° 0 mm 2 mps 724 mmHg 90%
    03:00 -1°C° 0 mm 2 mps 724 mmHg 91%
    04:00 -1°C° 0 mm 2 mps 724 mmHg 91%
    05:00 -1°C° 0 mm 2 mps 725 mmHg 91%
    06:00 -1°C° 0 mm 3 mps 725 mmHg 91%
    07:00 -1°C° 0 mm 3 mps 726 mmHg 91%
    08:00 -1°C° 0 mm 3 mps 726 mmHg 88%
    09:00 -1°C° 0 mm 3 mps 727 mmHg 85%
    10:00 +1°C° 0 mm 2 mps 728 mmHg 82%
    11:00 0°C° 0 mm 3 mps 728 mmHg 79%
    12:00 +1°C° 0 mm 3 mps 728 mmHg 76%
    13:00 +1°C° 0 mm 3 mps 729 mmHg 74%
    14:00 +1°C° 0 mm 3 mps 729 mmHg 76%
    15:00 +1°C° 0 mm 3 mps 730 mmHg 78%
    16:00 +1°C° 0 mm 2 mps 730 mmHg 80%
    17:00 0°C° 0 mm 3 mps 731 mmHg 81%
    18:00 0°C° 0 mm 3 mps 731 mmHg 83%
    19:00 0°C° 0 mm 3 mps 731 mmHg 85%
    20:00 -1°C° 0 mm 3 mps 732 mmHg 85%
    21:00 -1°C° 0 mm 3 mps 732 mmHg 86%
    22:00 -1°C° 0 mm 3 mps 733 mmHg 87%
    23:00 -1°C° 0 mm 3 mps 733 mmHg 87%

    Day after tomorrow, 17 December, Sunday

    Time Temperature Precipitation Wind Pressure Humidity
    00:00 -1°C° 0 mm 3 mps 734 mmHg 86%
    01:00 -1°C° 0 mm 3 mps 734 mmHg 86%
    02:00 -1°C° 0 mm 3 mps 734 mmHg 86%
    03:00 -1°C° 0 mm 3 mps 734 mmHg 86%
    04:00 -1°C° 0 mm 3 mps 734 mmHg 86%
    05:00 -1°C° 0 mm 3 mps 735 mmHg 86%
    06:00 -1°C° 0 mm 3 mps 735 mmHg 86%
    07:00 -1°C° 0 mm 3 mps 736 mmHg 85%
    08:00 -2°C° 0 mm 4 mps 736 mmHg 83%
    09:00 -1°C° 0 mm 4 mps 737 mmHg 80%
    10:00 -1°C° 0 mm 4 mps 738 mmHg 78%
    11:00 -1°C° 0 mm 5 mps 738 mmHg 75%
    12:00 0°C° 0 mm 5 mps 738 mmHg 73%
    13:00 0°C° 0 mm 5 mps 738 mmHg 71%
    14:00 0°C° 0 mm 4 mps 739 mmHg 73%
    15:00 -1°C° 0 mm 4 mps 739 mmHg 76%
    16:00 0°C° 0 mm 3 mps 739 mmHg 78%
    17:00 -1°C° 0 mm 3 mps 740 mmHg 80%
    18:00 -1°C° 0 mm 3 mps 740 mmHg 82%
    19:00 -1°C° 0 mm 3 mps 741 mmHg 85%
    20:00 -1°C° 0 mm 3 mps 741 mmHg 85%
    21:00 -2°C° 0 mm 4 mps 742 mmHg 85%
    22:00 -2°C° 0 mm 4 mps 742 mmHg 85%
    23:00 -2°C° 0 mm 4 mps 742 mmHg 84%

    18 December, Monday

    Time Temperature Precipitation Wind Pressure Humidity
    00:00 -2°C° 0 mm 4 mps 741 mmHg 84%
    01:00 -2°C° 0 mm 4 mps 741 mmHg 84%
    02:00 -2°C° 0 mm 4 mps 741 mmHg 83%
    03:00 -2°C° 0 mm 4 mps 740 mmHg 81%
    04:00 -2°C° 0 mm 4 mps 740 mmHg 80%
    05:00 -2°C° 0.2 mm 5 mps 739 mmHg 81%
    06:00 -2°C° 0.2 mm 5 mps 738 mmHg 82%
    07:00 -3°C° 0.2 mm 6 mps 738 mmHg 83%
    08:00 -3°C° 1.2 mm 6 mps 737 mmHg 85%
    09:00 -3°C° 1.2 mm 6 mps 737 mmHg 86%
    10:00 -2°C° 1.2 mm 6 mps 736 mmHg 88%
    11:00 -2°C° 0.6 mm 6 mps 736 mmHg 88%
    12:00 0°C° 0.6 mm 5 mps 736 mmHg 87%
    13:00 +1°C° 0.6 mm 5 mps 736 mmHg 87%
    14:00 0°C° 0.1 mm 4 mps 736 mmHg 88%
    15:00 +1°C° 0.1 mm 3 mps 736 mmHg 89%
    16:00 +1°C° 0.1 mm 3 mps 736 mmHg 90%
    17:00 0°C° 0.1 mm 3 mps 737 mmHg 90%
    18:00 0°C° 0.1 mm 3 mps 738 mmHg 90%
    19:00 +1°C° 0.1 mm 2 mps 738 mmHg 90%
    20:00 +1°C° 0 mm 2 mps 739 mmHg 91%
    21:00 +1°C° 0 mm 2 mps 740 mmHg 91%
    22:00 +1°C° 0 mm 2 mps 740 mmHg 91%
    23:00 +1°C° 0 mm 2 mps 741 mmHg 92%

    19 December, Tuesday

    Time Temperature Precipitation Wind Pressure Humidity
    00:00 +1°C° 0 mm 2 mps 741 mmHg 92%
    01:00 0°C° 0 mm 3 mps 741 mmHg 92%
    02:00 +1°C° 0 mm 3 mps 742 mmHg 92%
    03:00 +1°C° 0 mm 3 mps 742 mmHg 92%
    04:00 +1°C° 0 mm 3 mps 743 mmHg 92%
    05:00 +1°C° 0.1 mm 3 mps 743 mmHg 91%
    06:00 +1°C° 0.1 mm 3 mps 743 mmHg 91%
    07:00 0°C° 0.1 mm 4 mps 743 mmHg 91%
    08:00 0°C° 0.1 mm 4 mps 744 mmHg 90%
    09:00 0°C° 0.1 mm 4 mps 744 mmHg 90%
    10:00 0°C° 0.1 mm 4 mps 745 mmHg 90%
    11:00 0°C° 0.1 mm 4 mps 745 mmHg 89%
    12:00 0°C° 0.1 mm 4 mps 745 mmHg 89%
    13:00 0°C° 0.1 mm 4 mps 745 mmHg 88%
    14:00 0°C° 0 mm 4 mps 745 mmHg 89%
    15:00 0°C° 0 mm 4 mps 746 mmHg 89%
    16:00 +1°C° 0 mm 3 mps 746 mmHg 90%
    17:00 +1°C° 0.1 mm 3 mps 746 mmHg 90%
    18:00 +1°C° 0.1 mm 3 mps 746 mmHg 90%
    19:00 +1°C° 0.1 mm 3 mps 747 mmHg 91%
    20:00 0°C° 0 mm 3 mps 747 mmHg 91%
    21:00 0°C° 0 mm 3 mps 747 mmHg 92%
    22:00 +1°C° 0 mm 2 mps 747 mmHg 92%
    23:00 +1°C° 0 mm 2 mps 747 mmHg 93%

    20 December, Wednesday

    Time Temperature Precipitation Wind Pressure Humidity
    00:00 +1°C° 0 mm 2 mps 746 mmHg 93%
    01:00 +1°C° 0 mm 2 mps 746 mmHg 93%
    02:00 +1°C° 0 mm 2 mps 746 mmHg 93%
    03:00 +1°C° 0 mm 2 mps 746 mmHg 93%
    04:00 +1°C° 0 mm 2 mps 746 mmHg 94%
    05:00 +1°C° 0.2 mm 2 mps 746 mmHg 94%
    06:00 +2°C° 0.2 mm 1 mps 746 mmHg 94%
    07:00 +3°C° 0.2 mm 1 mps 746 mmHg 94%
    08:00 +3°C° 0.4 mm 1 mps 746 mmHg 95%
    09:00 +3°C° 0.4 mm 1 mps 746 mmHg 95%
    10:00 +3°C° 0.4 mm 1 mps 746 mmHg 96%
    11:00 +3°C° 0.3 mm 1 mps 746 mmHg 96%
    12:00 +3°C° 0.3 mm 1 mps 746 mmHg 96%
    13:00 +4°C° 0.3 mm 1 mps 746 mmHg 97%
    14:00 +4°C° 0.4 mm 1 mps 746 mmHg 97%
    15:00 +4°C° 0.4 mm 1 mps 746 mmHg 97%
    16:00 +4°C° 0.4 mm 1 mps 746 mmHg 97%
    17:00 +4°C° 0.3 mm 1 mps 747 mmHg 97%
    18:00 +4°C° 0.3 mm 1 mps 747 mmHg 97%
    19:00 +4°C° 0.3 mm 1 mps 747 mmHg 97%
    20:00 +4°C° 0.1 mm 1 mps 747 mmHg 97%
    21:00 +4°C° 0.1 mm 1 mps 747 mmHg 97%
    22:00 +3°C° 0.1 mm 2 mps 747 mmHg 97%
    23:00 +4°C° 0.2 mm 2 mps 747 mmHg 97%
    Show more